Find Starlink 33907

NORAD ID: 63769 Int'l Des: 2025-089 Owner: SPXS Country: US Constellation: starlink operational
LEOCIRCULAR

現在のビュー

3D地球を読み込み中...

About Starlink 33907

Starlink 33907 (NORAD 63769) is a starlink constellation satellite (v2 mini) launched Apr 29, 2025 by SPXS of US. It operates in LEO, CIRCULAR orbit with a mass of 575.00 kg.

Starlink 33907について

説明を読み込み中...

次回通過

Passes for default location (London). Set your location on the main map for personalized predictions.

高度履歴

Loading altitude history...

軌道要素

1 63769U 25089U 26171.06450702 .00014592 00000-0 53855-3 0 9996
2 63769 42.9970 187.1400 0002591 280.4400 79.6160 15.27589252 64566
Epoch: Jun 20, 2026 • Age: 47 hours

現在のステータス

高度 482.9 km
速度 7.63 km/s
衛星直下点 -7.63°S, 111.01°W
打ち上げ日 Apr 29, 2025
運用期間 1.1 years
タイプ internet

技術仕様

分類 Payload
質量 575.00 kg
乾燥質量 530.00 kg
総質量 575.00 kg
長さ 0.30 m
直径 4.10 m
スパン 29.00 m
形状 Box + pan
製造者 SPXS
バスタイプ Starlink V2MO
フェーズステータス In Orbit
所有者/国 SPXS/US

Most Searched